Hourly Data Report for July 15, 2013

All times are specified in Local Standard Time (LST). Add 1 hour to adjust for Daylight Saving Time where and when it is observed.

VICTORIA INTL A
BRITISH COLUMBIA

48°38'50.000" N
123°25'33.000" W
19.50 m
1018621
71799
YYJ

Download Data

Hourly Data (July 2013)
Hourly Data Report for July 15, 2013
Temp Definition
°C
Dew Point Temp Definition
°C
Rel Hum Definition
%
Wind Dir Definition
10's deg

Wind Spd Definition
km/h
Visibility Definition
km
Stn Press Definition
kPa
Hmdx Definition


Wind Chill Definition


Weather Definition


TIME
00:00 Legend Double Dagger 14.4 11.0 80 8 6 48.3 101.51     LegendNANA
01:00 Legend Double Dagger 15.3 11.1 76 26 14 48.3 101.52     Clear
02:00 Legend Double Dagger 12.9 9.8 81 24 5 48.3 101.55     LegendNANA
03:00 Legend Double Dagger 12.2 10.6 90 11 1 48.3 101.57     LegendNANA
04:00 Legend Double Dagger 13.6 10.3 80 23 7 48.3 101.59     Clear
05:00 Legend Double Dagger 14.1 10.0 76 26 10 48.3 101.61     LegendNANA
06:00 Legend Double Dagger 16.2 10.4 68 27 11 48.3 101.63     LegendNANA
07:00 Legend Double Dagger 18.1 10.1 59 30 15 48.3 101.65     Clear
08:00 Legend Double Dagger 19.4 10.0 54 28 15 48.3 101.66     LegendNANA
09:00 Legend Double Dagger 21.8 9.5 45 31 5 48.3 101.65     LegendNANA
10:00 Legend Double Dagger 23.4 6.9 34 1 16 48.3 101.62     Clear
11:00 Legend Double Dagger 24.1 7.0 33 35 15 48.3 101.60     LegendNANA
12:00 Legend Double Dagger 24.6 7.5 33 5 14 48.3 101.56 25   LegendNANA
13:00 Legend Double Dagger 25.3 9.0 35 4 4 48.3 101.50 26   Clear
14:00 Legend Double Dagger 26.3 5.0 25 29 17 48.3 101.44 26   LegendNANA
15:00 Legend Double Dagger 27.3 5.8 25 34 7 48.3 101.36 27   LegendNANA
16:00 Legend Double Dagger 27.4 5.9 25 28 12 48.3 101.29 27   Clear
17:00 Legend Double Dagger 27.2 5.7 25 28 15 48.3 101.20 27   LegendNANA
18:00 Legend Double Dagger 27.0 6.1 26 30 17 48.3 101.16 27   LegendNANA
19:00 Legend Double Dagger 25.6 7.9 32 29 7 48.3 101.13 26   Clear
20:00 Legend Double Dagger 22.2 8.9 42 19 7 48.3 101.12     LegendNANA
21:00 Legend Double Dagger 17.2 8.2 55 22 9 48.3 101.15     LegendNANA
22:00 Legend Double Dagger 17.1 8.6 57 30 7 48.3 101.14     Clear
23:00 Legend Double Dagger 19.0 9.0 52 27 6 48.3 101.13     LegendNANA

Notes on Data Quality.

Legend

  • E = Estimated
  • M = Missing
  • NA = Not Available
  • ‡ = Partner data that is not subject to review by the National Climate Archives
Date modified: